Regional Weather Roundup
Issued by NWS

Home | Current Version | Previous Version | Text Only | Print | Product List | Glossary On
Versions: 1 2 3 4 5 6 7 8 9 10 11 12 13 14 15 16 17 18 19 20 21 22 23 24 25 26 27 28 29 30 31 32 33 34 35 36 37 38 39 40 41 42 43 44 45 46 47 48 49 50
000
ASUS44 KFWD 202003
RWRTX
NORTH TEXAS HOURLY WEATHER ROUNDUP
NATIONAL WEATHER SERVICE FORT WORTH TX
300 PM CDT SUN MAY 20 2018

NOTE: "FAIR" INDICATES FEW OR NO CLOUDS BELOW 12,000 FEET WITH NO
SIGNIFICANT WEATHER AND/OR OBSTRUCTIONS TO VISIBILITY.

TXZ118-119-202100-
DALLAS/FORT WORTH METROPLEX

CITY           SKY/WX    TMP DP  RH WIND       PRES   REMARKS
DFW AIRPORT    PTSUNNY   76  67  73 S13       29.99R
DALLAS LOVE    PTSUNNY   75  67  76 S14       29.98F
FTW MEACHAM    FAIR      80  68  66 VRB3      30.01R
DAL-EXECUTIVE  FAIR      74  67  78 SE15      29.98F
FTW-ALLIANCE   PTSUNNY   79  67  66 S8        30.02R
FTW-NAS-JRB    PTSUNNY   80  65  59 S8        30.02R
FTW-SPINKS     PTSUNNY   77  68  73 SE3       30.02S
ARLINGTON      FAIR      76  67  73 SE10      29.99F
GRAND PRAIRIE  SUNNY     75  64  69 S7        30.01F
ADDISON        MOSUNNY   75  66  73 S9G18     30.01S
MESQUITE       TSTM      70  66  88 S15G21    30.00F
LANCASTER      FAIR      70  67  91 SE10      30.00F
$$

TXZ091>094-102>105-117-120-121-131>134-202100-
NORTH CENTRAL TEXAS

CITY           SKY/WX    TMP DP  RH WIND       PRES   REMARKS
SHRMAN/DENISON FAIR      79  65  62 W7        30.03R
GAINESVILLE    PTSUNNY   76  65  67 W8        30.05S
BOWIE          PTSUNNY   75  64  67 N7        30.04F
BRIDGEPORT     FAIR      78  64  62 N8        30.04F
DECATUR        FAIR      78  65  65 CALM      30.03S
DENTON         FAIR      80  66  62 S12       30.02R
MCKINNEY       FAIR      76  69  79 S9        30.00R
BONHAM         FAIR      80  66  62 SW8       30.01R
ROCKWALL       FAIR      71  69  93 S9        30.00F
TERRELL        LGT RAIN  71  66  84 S21       30.01F
WAXAHACHIE     FAIR      71  70  98 SE10      30.00F
CLEBURNE       FAIR      77  70  78 SE12      30.01F
GRANBURY       FAIR      79  65  63 NE5       30.02F
$$

TXZ083>090-098>101-113>116-127>130-139>142-154-155-202100-
WESTERN NORTH TEXAS

CITY           SKY/WX    TMP DP  RH WIND       PRES   REMARKS
WICHITA FALLS  CLOUDY    75  62  64 N10       30.05F
WF-KICKAPOO    CLOUDY    74  60  61 N9G16     30.08S
VERNON         PTSUNNY   73  59  62 N7G16     30.08F
ABILENE        FAIR      76  60  57 VRB5      30.04F
ABILENE-DYESS  PTSUNNY   75  58  53 N9        30.05F
BRECKENRIDGE   FAIR      83  54  36 N6        30.02F HAZE
CISCO          FAIR      81  59  47 N9        30.04F
EASTLAND       FAIR      83  61  48 NE10G22   30.01F
RANGER         FAIR      81  60  48 NE8       30.02F
MINERAL WELLS  FAIR      82  61  48 N6        30.00F
STEPHENVILLE   FAIR      80  61  52 N7        30.04F
COMANCHE       FAIR      80  61  52 E7        30.02R
COLEMAN        FAIR      83  53  36 CALM      30.03F
BRADY          FAIR      73  59  60 S12       30.04S
$$

TXZ143>147-156>162-174-175-202100-
CENTRAL TEXAS

CITY           SKY/WX    TMP DP  RH WIND       PRES   REMARKS
WACO           LGT RAIN  69  68  96 E10       30.00F
WACO-TSTC      LGT RAIN  68  68 100 E9        30.00
WACO-MCGREGOR  CLOUDY    69  68  96 E9        30.00F
HILLSBORO      FAIR      70  69  98 E12       29.99F
CORSICANA      HVY RAIN  69  68  96 E5        30.07F FOG
MEXIA          TSTM      67  66  96 NW7       30.05F
HEARNE         TSTM      69  69 100 N13       30.05R VSB 3/4
CAMERON        PTSUNNY   69  68  96 E7        30.03F
TEMPLE         FAIR      68  68 100 E12       30.01F
KILLEEN        NOT AVBL
KILLEEN-SKYLRK FAIR      72  68  87 E6        30.01F
FORT HOOD      FAIR      73  68  86 E5        29.97F
GATESVILLE     FAIR      70  68  94 VRB7      30.00F
HAMILTON       FAIR      75  65  69 SE9       29.99F
LAMPASAS       FAIR      74  65  72 SE7       29.99F
$$

TXZ095>097-106>112-122>126-135>138-148>153-164>167-202100-
EAST TEXAS

CITY           SKY/WX    TMP DP  RH WIND       PRES   REMARKS
PARIS          FAIR      81  71  71 SW6       30.00F
SULPHUR SPRNGS FAIR      81  69  67 S9        30.01F
MOUNT PLEASANT FAIR      88  66  48 W5        30.01F HX  90
GILMER         FAIR      87  64  47 SW5       30.00F
MINEOLA        FAIR      81  70  69 W7        30.02R
TYLER          FAIR      85  64  49 W10       30.02R
LONGVIEW       RAIN      87  69  54 SW14G22   29.99F HX  91
MARSHALL       PTSUNNY   87  64  46 S3        30.02F
ATHENS         TSTM      70  68  94 CALM      30.06R
PALESTINE      LGT RAIN  69  67  92 SW6       30.09R
JACKSONVILLE   FAIR      85  65  51 S5        30.05R
HENDERSON      CLOUDY    88  64  44 S6        30.02S
CENTER         MOCLDY    89  64  44 CALM      30.00F HX  90
NACOGDOCHES      N/A     89  67  47 SE6       30.00F HX  92
LUFKIN         LGT RAIN  79  71  76 W10G23    29.98F
$$

SUPPLEMENTAL OBSERVATIONS (NWS FORT WORTH AREA)

CITY           SKY/WX    TMP DP  RH WIND       PRES   REMARKS
$$

SUPPLEMENTAL OBSERVATIONS (NWS NORMAN AREA)

CITY           SKY/WX    TMP DP  RH WIND       PRES   REMARKS
GOODLETT         N/A     72  56  57 N7        30.09S
ODELL            N/A     72  58  61 N8        30.10F
CROWELL          N/A     73  59  61 NE7       30.10S
KNOX CITY        N/A     71  59  64 N9        30.09F
SEYMOUR          N/A     73  59  61 N8        30.08F
$$

SUPPLEMENTAL OBSERVATIONS (NWS SAN ANGELO AREA)

CITY           SKY/WX    TMP DP  RH WIND       PRES   REMARKS
WEINERT          N/A     71  59  66 NE7       30.09F
HASKELL          N/A     71  59  66 N12       30.09S
THROCKMORTON     N/A     74  62  65 N10       30.08S
STAMFORD         N/A     73  63  70 N16       30.08F
CLYDE            N/A     76  60  57 N8        30.07F
$$

SUPPLEMENTAL OBSERVATIONS (NWS SHREVEPORT AREA)

CITY           SKY/WX    TMP DP  RH WIND       PRES   REMARKS
$$

SUPPLEMENTAL OBSERVATIONS ARE A COLLECTION OF AUTOMATED INSTRUMENTS
THAT ARE MAINTAINED BY A VARIETY OF FEDERAL AND STATE AGENCIES.
CERTAIN ELEMENTS...SUCH AS HUMIDITY VALUES AND SUSTAINED WIND
SPEEDS...MAY BE APPROXIMATED.





USA.gov is the U.S. government's official web portal to all federal, state and local government web resources and services.